SHT8B EGLL-EGPH

Flight info

Callsign SHT8B
Flight time 0h 56m
Altitude 32000
Route ULTIB1J ULTIB T420 TNT UN57 POL UN601 RIBEL DCT INPIP INPIP1E
Aircraft A320/M-SDE3FGHIJ1RWXY/S

Departure

Time 2026-04-21 18:02
Airport London Heathrow Airport (EGLL)

Arrival

Time 2026-04-21 18:58
Airport Edinburgh Airport (EGPH)
Time Latitude Longitude Altitude Speed Heading
2026-04-21 17:25 51.47405 -0.48829 86 ft 0 kts 179°
2026-04-21 17:52 51.47408 -0.48829 86 ft 3 kts 179°
2026-04-21 17:52 51.47435 -0.48831 86 ft 4 kts 173°
2026-04-21 17:52 51.47462 -0.48839 86 ft 4 kts 159°
2026-04-21 17:53 51.47483 -0.48860 87 ft 4 kts 116°
2026-04-21 17:53 51.47486 -0.48879 86 ft 1 kts 88°
2026-04-21 17:53 51.47486 -0.48882 86 ft 0 kts 88°
2026-04-21 17:56 51.47486 -0.48881 86 ft 1 kts 88°
2026-04-21 17:56 51.47487 -0.48816 88 ft 10 kts 90°
2026-04-21 17:56 51.47487 -0.48694 88 ft 12 kts 90°
2026-04-21 17:57 51.47487 -0.48603 88 ft 9 kts 89°
2026-04-21 17:57 51.47469 -0.48481 89 ft 13 kts 150°
2026-04-21 17:57 51.47369 -0.48474 86 ft 16 kts 180°
2026-04-21 17:57 51.47247 -0.48472 88 ft 19 kts 179°
2026-04-21 17:58 51.47104 -0.48471 88 ft 22 kts 179°
2026-04-21 17:58 51.46962 -0.48470 89 ft 19 kts 180°
2026-04-21 17:58 51.46881 -0.48468 88 ft 0 kts 180°
2026-04-21 17:58 51.46868 -0.48468 86 ft 3 kts 180°
2026-04-21 17:59 51.46854 -0.48468 86 ft 1 kts 180°
2026-04-21 17:59 51.46840 -0.48468 86 ft 3 kts 180°
2026-04-21 17:59 51.46815 -0.48468 86 ft 2 kts 180°
2026-04-21 17:59 51.46776 -0.48468 86 ft 12 kts 180°
2026-04-21 18:00 51.46682 -0.48467 89 ft 15 kts 180°
2026-04-21 18:00 51.46601 -0.48467 86 ft 2 kts 179°
2026-04-21 18:00 51.46596 -0.48467 86 ft 2 kts 179°
2026-04-21 18:00 51.46560 -0.48466 87 ft 8 kts 179°
2026-04-21 18:01 51.46494 -0.48462 86 ft 11 kts 166°
2026-04-21 18:01 51.46481 -0.48391 87 ft 5 kts 92°
2026-04-21 18:01 51.46480 -0.48299 88 ft 21 kts 90°
2026-04-21 18:01 51.46481 -0.47527 85 ft 113 kts 90°
2026-04-21 18:02 51.46489 -0.45968 395 ft 153 kts 89°
2026-04-21 18:02 51.46507 -0.44235 1413 ft 157 kts 86°
2026-04-21 18:02 51.46538 -0.42405 2188 ft 171 kts 83°
2026-04-21 18:02 51.46855 -0.40454 2551 ft 194 kts 64°
2026-04-21 18:03 51.47699 -0.38585 3014 ft 220 kts 52°
2026-04-21 18:03 51.48701 -0.36666 3764 ft 232 kts 53°
2026-04-21 18:03 51.49761 -0.34623 4728 ft 239 kts 53°
2026-04-21 18:03 51.50824 -0.32568 5586 ft 247 kts 53°
2026-04-21 18:04 51.51939 -0.30378 5914 ft 251 kts 57°
2026-04-21 18:04 51.52731 -0.27960 6261 ft 248 kts 72°
2026-04-21 18:04 51.53332 -0.25356 6636 ft 251 kts 64°
2026-04-21 18:04 51.54495 -0.23236 6984 ft 260 kts 37°
2026-04-21 18:05 51.56218 -0.22254 7338 ft 272 kts
2026-04-21 18:05 51.58115 -0.22723 7687 ft 281 kts 349°
2026-04-21 18:05 51.60010 -0.23445 8141 ft 280 kts 353°
2026-04-21 18:05 51.61905 -0.24252 8507 ft 285 kts 342°
2026-04-21 18:06 51.63700 -0.25697 8873 ft 290 kts 334°
2026-04-21 18:06 51.65453 -0.27318 9312 ft 291 kts 333°
2026-04-21 18:06 51.67204 -0.28991 9904 ft 294 kts 333°
2026-04-21 18:06 51.68963 -0.30694 10479 ft 296 kts 332°
2026-04-21 18:07 51.70770 -0.32448 11025 ft 310 kts 332°
2026-04-21 18:07 51.72659 -0.34275 11580 ft 323 kts 332°
2026-04-21 18:07 51.74618 -0.36169 12139 ft 334 kts 332°
2026-04-21 18:07 51.76642 -0.38133 12709 ft 343 kts 331°
2026-04-21 18:08 51.78706 -0.40138 13239 ft 349 kts 332°
2026-04-21 18:08 51.80801 -0.42172 13948 ft 354 kts 332°
2026-04-21 18:08 51.82926 -0.44231 14610 ft 358 kts 332°
2026-04-21 18:08 51.85065 -0.46303 15292 ft 359 kts 330°
2026-04-21 18:09 51.87217 -0.48392 15987 ft 361 kts 330°
2026-04-21 18:09 51.89378 -0.50492 16682 ft 363 kts 330°
2026-04-21 18:09 51.91549 -0.52607 17369 ft 366 kts 330°
2026-04-21 18:09 51.93741 -0.54748 18034 ft 368 kts 332°
2026-04-21 18:10 51.95938 -0.56895 18714 ft 370 kts 330°
2026-04-21 18:10 51.98144 -0.59052 19363 ft 370 kts 330°
2026-04-21 18:10 52.00341 -0.61200 20150 ft 368 kts 329°
2026-04-21 18:10 52.02525 -0.63336 20864 ft 367 kts 329°
2026-04-21 18:11 52.04713 -0.65481 21522 ft 367 kts 329°
2026-04-21 18:11 52.06907 -0.67636 22060 ft 370 kts 329°
2026-04-21 18:11 52.09112 -0.69807 22637 ft 372 kts 328°
2026-04-21 18:11 52.11328 -0.71989 23224 ft 373 kts 328°
2026-04-21 18:12 52.13553 -0.74177 23836 ft 374 kts 328°
2026-04-21 18:12 52.15780 -0.76370 24355 ft 374 kts 328°
2026-04-21 18:12 52.18008 -0.78566 24866 ft 375 kts 328°
2026-04-21 18:12 52.20237 -0.80769 25377 ft 375 kts 328°
2026-04-21 18:13 52.22471 -0.82982 25889 ft 375 kts 327°
2026-04-21 18:13 52.24699 -0.85195 26389 ft 376 kts 327°
2026-04-21 18:13 52.26935 -0.87417 26875 ft 376 kts 327°
2026-04-21 18:13 52.29174 -0.89640 27338 ft 378 kts 327°
2026-04-21 18:14 52.33672 -0.94111 28186 ft 381 kts 327°
2026-04-21 18:14 52.35938 -0.96365 28700 ft 381 kts 327°
2026-04-21 18:14 52.38200 -0.98624 29220 ft 381 kts 327°
2026-04-21 18:15 52.40463 -1.00889 29654 ft 382 kts 326°
2026-04-21 18:15 52.42736 -1.03166 30067 ft 383 kts 326°
2026-04-21 18:15 52.45013 -1.05451 30469 ft 385 kts 326°
2026-04-21 18:15 52.47301 -1.07746 30814 ft 387 kts 326°
2026-04-21 18:16 52.49606 -1.10057 31120 ft 390 kts 326°
2026-04-21 18:16 52.51931 -1.12389 31438 ft 393 kts 326°
2026-04-21 18:16 52.54263 -1.14733 31839 ft 393 kts 326°
2026-04-21 18:16 52.56595 -1.17082 32169 ft 394 kts 326°
2026-04-21 18:17 52.58921 -1.19432 32233 ft 387 kts 326°
2026-04-21 18:17 52.63431 -1.23993 32220 ft 377 kts 326°
2026-04-21 18:18 52.67893 -1.28510 32221 ft 376 kts 326°
2026-04-21 18:18 52.72347 -1.33029 32221 ft 375 kts 326°
2026-04-21 18:18 52.74568 -1.35289 32388 ft 375 kts 326°
2026-04-21 18:19 52.76790 -1.37561 32394 ft 376 kts 326°
2026-04-21 18:19 52.81217 -1.42093 32382 ft 377 kts 326°
2026-04-21 18:20 52.85685 -1.46670 32381 ft 377 kts 326°
2026-04-21 18:20 52.90150 -1.51255 32380 ft 377 kts 326°
2026-04-21 18:21 52.94610 -1.55854 32364 ft 377 kts 326°
2026-04-21 18:21 52.99074 -1.60448 32370 ft 377 kts 326°
2026-04-21 18:22 53.03537 -1.65056 32382 ft 378 kts 326°
2026-04-21 18:22 53.08301 -1.68798 32384 ft 382 kts 336°
2026-04-21 18:23 53.13289 -1.71877 32380 ft 382 kts 336°
2026-04-21 18:23 53.18281 -1.74971 32386 ft 383 kts 336°
2026-04-21 18:24 53.23273 -1.78079 32388 ft 383 kts 336°
2026-04-21 18:24 53.28273 -1.81192 32399 ft 384 kts 336°
2026-04-21 18:25 53.33283 -1.84321 32396 ft 385 kts 336°
2026-04-21 18:25 53.38263 -1.87447 32395 ft 385 kts 336°
2026-04-21 18:26 53.43290 -1.90608 32387 ft 385 kts 336°
2026-04-21 18:26 53.48312 -1.93773 32399 ft 386 kts 336°
2026-04-21 18:27 53.53331 -1.96946 32409 ft 386 kts 336°
2026-04-21 18:27 53.58359 -2.00127 32408 ft 386 kts 336°
2026-04-21 18:28 53.63386 -2.03316 32409 ft 386 kts 336°
2026-04-21 18:28 53.68414 -2.06514 32411 ft 386 kts 336°
2026-04-21 18:29 53.73432 -2.09717 32408 ft 386 kts 336°
2026-04-21 18:29 53.78433 -2.13006 32402 ft 385 kts 335°
2026-04-21 18:30 53.83403 -2.16437 32407 ft 386 kts 334°
2026-04-21 18:30 53.88375 -2.19875 32409 ft 386 kts 334°
2026-04-21 18:31 53.93360 -2.23295 32421 ft 386 kts 334°
2026-04-21 18:31 53.98350 -2.26720 32432 ft 387 kts 335°
2026-04-21 18:32 54.03346 -2.30156 32413 ft 388 kts 335°
2026-04-21 18:32 54.08355 -2.33613 32408 ft 389 kts 335°
2026-04-21 18:33 54.13339 -2.37062 32413 ft 389 kts 335°
2026-04-21 18:33 54.18367 -2.40554 32423 ft 390 kts 335°
2026-04-21 18:34 54.23397 -2.44051 32436 ft 391 kts 335°
2026-04-21 18:34 54.28451 -2.47584 32408 ft 394 kts 335°
2026-04-21 18:35 54.32680 -2.50549 32411 ft 396 kts 335°
2026-04-21 18:35 54.38667 -2.54745 32418 ft 398 kts 335°
2026-04-21 18:36 54.43799 -2.58372 32880 ft 399 kts 335°
2026-04-21 18:36 54.46374 -2.60213 32754 ft 401 kts 335°
2026-04-21 18:36 54.48948 -2.62068 32498 ft 403 kts 335°
2026-04-21 18:36 54.50663 -2.63319 32326 ft 404 kts 335°
2026-04-21 18:37 54.53266 -2.65176 32070 ft 405 kts 336°
2026-04-21 18:37 54.55878 -2.66997 31823 ft 404 kts 336°
2026-04-21 18:37 54.58488 -2.68804 31553 ft 403 kts 335°
2026-04-21 18:37 54.61888 -2.71168 31219 ft 393 kts 335°
2026-04-21 18:38 54.63588 -2.72360 31001 ft 388 kts 334°
2026-04-21 18:38 54.66069 -2.74113 30536 ft 383 kts 334°
2026-04-21 18:38 54.68522 -2.75861 30015 ft 379 kts 334°
2026-04-21 18:38 54.70941 -2.77592 29551 ft 374 kts 334°
2026-04-21 18:39 54.73334 -2.79308 29102 ft 370 kts 335°
2026-04-21 18:39 54.75676 -2.80992 28646 ft 368 kts 335°
2026-04-21 18:39 54.78029 -2.82686 28199 ft 365 kts 336°
2026-04-21 18:39 54.80370 -2.84371 27764 ft 363 kts 335°
2026-04-21 18:40 54.82698 -2.86048 27337 ft 361 kts 336°
2026-04-21 18:40 54.85006 -2.87711 26926 ft 358 kts 336°
2026-04-21 18:40 54.87303 -2.89366 26512 ft 356 kts 337°
2026-04-21 18:40 54.89616 -2.91035 26031 ft 368 kts 337°
2026-04-21 18:41 54.92028 -2.92777 25507 ft 379 kts 337°
2026-04-21 18:41 54.94477 -2.94546 24969 ft 383 kts 338°
2026-04-21 18:41 54.96940 -2.96323 24430 ft 384 kts 338°
2026-04-21 18:41 54.99418 -2.98110 23882 ft 385 kts 338°
2026-04-21 18:42 55.01884 -2.99898 23579 ft 384 kts 339°
2026-04-21 18:42 55.04331 -3.01827 22813 ft 391 kts 335°
2026-04-21 18:42 55.06793 -3.04007 21695 ft 401 kts 334°
2026-04-21 18:42 55.09231 -3.06295 20784 ft 394 kts 332°
2026-04-21 18:43 55.11585 -3.08571 20316 ft 379 kts 332°
2026-04-21 18:43 55.13872 -3.10789 19875 ft 375 kts 333°
2026-04-21 18:43 55.16151 -3.12985 19384 ft 373 kts 333°
2026-04-21 18:43 55.18428 -3.15163 18892 ft 371 kts 334°
2026-04-21 18:44 55.20695 -3.17317 18361 ft 369 kts 333°
2026-04-21 18:44 55.22943 -3.19450 17859 ft 366 kts 334°
2026-04-21 18:44 55.25137 -3.21529 17398 ft 362 kts 334°
2026-04-21 18:44 55.27342 -3.23618 16919 ft 359 kts 334°
2026-04-21 18:45 55.29529 -3.25691 16421 ft 356 kts 334°
2026-04-21 18:45 55.31696 -3.27752 15962 ft 353 kts 334°
2026-04-21 18:45 55.33848 -3.29802 15497 ft 351 kts 334°
2026-04-21 18:45 55.35990 -3.31844 15026 ft 349 kts 333°
2026-04-21 18:46 55.38116 -3.33876 14549 ft 347 kts 334°
2026-04-21 18:46 55.40230 -3.35899 14051 ft 346 kts 334°
2026-04-21 18:46 55.42335 -3.37919 13576 ft 343 kts 334°
2026-04-21 18:46 55.44419 -3.39922 13130 ft 340 kts 334°
2026-04-21 18:47 55.46487 -3.41908 12662 ft 337 kts 334°
2026-04-21 18:47 55.48540 -3.43881 12204 ft 336 kts 334°
2026-04-21 18:47 55.50586 -3.45853 11765 ft 333 kts 334°
2026-04-21 18:47 55.52617 -3.47814 11312 ft 332 kts 334°
2026-04-21 18:48 55.54647 -3.49771 10878 ft 331 kts 334°
2026-04-21 18:48 55.56648 -3.51701 10639 ft 322 kts 335°
2026-04-21 18:48 55.58579 -3.53570 10514 ft 310 kts 334°
2026-04-21 18:48 55.60444 -3.55379 10340 ft 302 kts 335°
2026-04-21 18:49 55.62277 -3.57156 9978 ft 300 kts 334°
2026-04-21 18:49 55.64104 -3.58930 9621 ft 298 kts 334°
2026-04-21 18:49 55.65304 -3.60096 9395 ft 297 kts 334°
2026-04-21 18:49 55.67700 -3.62425 8580 ft 292 kts 334°
2026-04-21 18:50 55.69426 -3.64305 7930 ft 293 kts 325°
2026-04-21 18:50 55.70999 -3.66580 7277 ft 291 kts 324°
2026-04-21 18:50 55.72571 -3.68865 6483 ft 294 kts 324°
2026-04-21 18:50 55.74136 -3.71130 6069 ft 282 kts 327°
2026-04-21 18:51 55.75789 -3.72877 5427 ft 276 kts 342°
2026-04-21 18:51 55.77576 -3.73715 5156 ft 254 kts 358°
2026-04-21 18:51 55.79258 -3.73750 5004 ft 230 kts 12°
2026-04-21 18:51 55.80729 -3.73203 4831 ft 209 kts 24°
2026-04-21 18:52 55.82042 -3.72186 4636 ft 200 kts 35°
2026-04-21 18:52 55.83147 -3.70811 4418 ft 193 kts 46°
2026-04-21 18:52 55.84048 -3.69148 4191 ft 181 kts 56°
2026-04-21 18:52 55.84725 -3.67337 3956 ft 171 kts 62°
2026-04-21 18:53 55.85334 -3.65568 3723 ft 163 kts 62°
2026-04-21 18:53 55.85914 -3.63880 3500 ft 157 kts 62°
2026-04-21 18:53 55.86472 -3.62252 3287 ft 151 kts 62°
2026-04-21 18:53 55.87012 -3.60675 3082 ft 147 kts 62°
2026-04-21 18:54 55.87536 -3.59147 2885 ft 143 kts 62°
2026-04-21 18:54 55.88049 -3.57646 2668 ft 141 kts 62°
2026-04-21 18:54 55.88552 -3.56176 2490 ft 135 kts 62°
2026-04-21 18:54 55.89017 -3.54818 2326 ft 125 kts 62°
2026-04-21 18:55 55.89318 -3.53936 2204 ft 123 kts 62°
2026-04-21 18:55 55.89906 -3.52213 1970 ft 122 kts 63°
2026-04-21 18:55 55.90346 -3.50925 1803 ft 122 kts 62°
2026-04-21 18:55 55.90785 -3.49636 1619 ft 121 kts 62°
2026-04-21 18:56 55.91221 -3.48360 1452 ft 121 kts 62°
2026-04-21 18:56 55.91659 -3.47075 1277 ft 122 kts 61°
2026-04-21 18:56 55.92102 -3.45773 1092 ft 122 kts 60°
2026-04-21 18:56 55.92539 -3.44488 921 ft 122 kts 61°
2026-04-21 18:57 55.92979 -3.43194 750 ft 121 kts 60°
2026-04-21 18:57 55.93417 -3.41907 574 ft 123 kts 61°
2026-04-21 18:57 55.93858 -3.40607 383 ft 125 kts 60°
2026-04-21 18:57 55.94303 -3.39311 204 ft 122 kts 60°
2026-04-21 18:58 55.94728 -3.38054 113 ft 107 kts 59°
2026-04-21 18:58 55.95026 -3.37168 111 ft 65 kts 59°
2026-04-21 18:58 55.95211 -3.36620 113 ft 39 kts 59°
2026-04-21 18:58 55.95235 -3.36398 112 ft 16 kts 137°
2026-04-21 18:59 55.95165 -3.36321 113 ft 0 kts 149°
2026-04-21 18:59 55.95162 -3.36318 114 ft 2 kts 149°
2026-04-21 18:59 55.95158 -3.36316 114 ft 1 kts 166°
2026-04-21 19:00 55.95111 -3.36353 112 ft 10 kts 230°
2026-04-21 19:00 55.95044 -3.36386 116 ft 12 kts 172°
2026-04-21 19:00 55.94981 -3.36490 114 ft 15 kts 239°
2026-04-21 19:00 55.94944 -3.36601 112 ft 5 kts 236°
2026-04-21 19:01 55.94922 -3.36587 114 ft 5 kts 153°
2026-04-21 19:01 55.94888 -3.36555 113 ft 3 kts 150°
2026-04-21 19:01 55.94882 -3.36549 113 ft 0 kts 150°